sat.trackr.live / text

‹ back to catalog

STARLINK-31356

NORAD 58968 · 2024-031D

PAYLOAD ACTIVE UNKNOWN

§ Identity

Operator
Country
US
Launch date
2024-02-15
Launch site
AFWTR
Launch vehicle
Mass (kg)
RCS (m²)

Purposes: comms

External: N2YO · Heavens-Above · Gunter

§ Orbital elements

Epoch: 2026-05-24T18:52:54.244416Z

Period
94.11 min
Inclination
53.1603°
Eccentricity
0.0000966
Mean motion
15.30198265 rev/d
Perigee alt
474.6 km
Apogee alt
475.9 km
Semi-major
6,853.4 km
B*
2.0711e-5
RAAN
275.3752°
Arg perigee
105.6148°
Mean anomaly
254.4960°
Rev number
12,857

§ Raw data

STARLINK-313561 58968U 24031D   26144.78673894  .00000254  00000+0  20711-4 0  99902 58968  53.1603 275.3752 0000966 105.6148 254.4960 15.30198265128576

JSON: /api/v1/satellites/58968 · /tle

For live sub-satellite position, see the globe view (requires WebGL).

§ Visibility from observer

Set your observer location to see the next 7 days of passes ≥ 10°. The values pass through the URL so the page stays shareable.

No JS? Fill the form by hand. The geolocation button needs JavaScript.